SVA522 OERK-OBBI

Flight info

Callsign SVA522
Flight time 0h 58m
Altitude 23000
Route ORNIP H976 MUSRI L604 KFA M691 LADNA
Aircraft B77W/H-SDE1E2E3FGHIJ2J3J4J5M1RWXY/LB1D1

Departure

Time 2026-04-27 17:01
Airport King Khalid International Airport (OERK)

Arrival

Time 2026-04-27 17:59
Airport Bahrain International Airport (OBBI)
Time Latitude Longitude Altitude Speed Heading
2026-04-27 16:42 24.95961 46.70465 2035 ft 0 kts 204°
2026-04-27 16:51 24.95962 46.70465 2035 ft 2 kts 204°
2026-04-27 16:51 24.95985 46.70477 2044 ft 4 kts 208°
2026-04-27 16:52 24.96008 46.70491 2039 ft 4 kts 212°
2026-04-27 16:52 24.96031 46.70507 2035 ft 4 kts 213°
2026-04-27 16:52 24.96054 46.70523 2035 ft 3 kts 205°
2026-04-27 16:52 24.96051 46.70526 2035 ft 4 kts 165°
2026-04-27 16:53 24.96039 46.70547 2038 ft 4 kts 111°
2026-04-27 16:53 24.96031 46.70576 2044 ft 4 kts 106°
2026-04-27 16:53 24.96025 46.70592 2041 ft 4 kts 148°
2026-04-27 16:53 24.96000 46.70608 2035 ft 4 kts 328°
2026-04-27 16:54 24.95978 46.70623 2035 ft 2 kts 330°
2026-04-27 16:54 24.95978 46.70624 2041 ft 0 kts 330°
2026-04-27 16:56 24.95991 46.70615 2043 ft 9 kts 330°
2026-04-27 16:56 24.96086 46.70554 2035 ft 17 kts 329°
2026-04-27 16:57 24.96191 46.70486 2043 ft 17 kts 330°
2026-04-27 16:57 24.96296 46.70420 2044 ft 17 kts 330°
2026-04-27 16:57 24.96398 46.70461 2042 ft 18 kts 53°
2026-04-27 16:57 24.96460 46.70576 2043 ft 17 kts 54°
2026-04-27 16:58 24.96555 46.70571 2044 ft 15 kts 331°
2026-04-27 16:58 24.96661 46.70506 2043 ft 18 kts 330°
2026-04-27 16:58 24.96768 46.70439 2041 ft 18 kts 330°
2026-04-27 16:58 24.96890 46.70362 2034 ft 25 kts 330°
2026-04-27 16:59 24.97042 46.70266 2040 ft 25 kts 330°
2026-04-27 16:59 24.97195 46.70169 2042 ft 25 kts 330°
2026-04-27 16:59 24.97347 46.70072 2035 ft 25 kts 330°
2026-04-27 16:59 24.97484 46.69986 2040 ft 19 kts 334°
2026-04-27 17:00 24.97620 46.70181 2035 ft 34 kts 101°
2026-04-27 17:00 24.97227 46.70493 2043 ft 91 kts 152°
2026-04-27 17:00 24.96469 46.70971 2042 ft 161 kts 150°
2026-04-27 17:01 24.95373 46.71681 2276 ft 194 kts 148°
2026-04-27 17:01 24.94331 46.72645 2884 ft 198 kts 121°
2026-04-27 17:01 24.93960 46.74119 3494 ft 210 kts 93°
2026-04-27 17:01 24.93984 46.75827 3739 ft 236 kts 84°
2026-04-27 17:02 24.94630 46.77598 3923 ft 268 kts 50°
2026-04-27 17:02 24.96177 46.78910 4162 ft 296 kts 31°
2026-04-27 17:02 24.98057 46.80084 4395 ft 325 kts 30°
2026-04-27 17:02 25.00120 46.81340 4627 ft 352 kts 30°
2026-04-27 17:03 25.02277 46.82655 5229 ft 364 kts 30°
2026-04-27 17:03 25.04481 46.84004 6300 ft 359 kts 30°
2026-04-27 17:03 25.06630 46.85341 7550 ft 351 kts 30°
2026-04-27 17:03 25.08719 46.86661 8789 ft 342 kts 30°
2026-04-27 17:04 25.10748 46.87959 9996 ft 332 kts 30°
2026-04-27 17:04 25.12735 46.89241 11017 ft 333 kts 30°
2026-04-27 17:04 25.14801 46.90583 11408 ft 358 kts 30°
2026-04-27 17:04 25.17035 46.92036 11640 ft 387 kts 30°
2026-04-27 17:05 25.19378 46.93563 12206 ft 403 kts 30°
2026-04-27 17:05 25.21819 46.95157 13066 ft 411 kts 30°
2026-04-27 17:05 25.24299 46.96778 14004 ft 417 kts 30°
2026-04-27 17:05 25.25960 46.97863 14607 ft 421 kts 30°
2026-04-27 17:06 25.29353 47.00084 15839 ft 427 kts 29°
2026-04-27 17:06 25.31928 47.01769 16727 ft 433 kts 28°
2026-04-27 17:06 25.34533 47.03476 17592 ft 438 kts 28°
2026-04-27 17:06 25.37170 47.05204 18442 ft 443 kts 28°
2026-04-27 17:07 25.39802 47.06930 19184 ft 450 kts 28°
2026-04-27 17:07 25.42522 47.08713 19828 ft 459 kts 27°
2026-04-27 17:07 25.45294 47.10530 20512 ft 466 kts 27°
2026-04-27 17:07 25.48102 47.12375 21179 ft 473 kts 27°
2026-04-27 17:08 25.50951 47.14246 21773 ft 480 kts 27°
2026-04-27 17:08 25.53841 47.16146 22358 ft 487 kts 27°
2026-04-27 17:08 25.56770 47.18073 22940 ft 493 kts 26°
2026-04-27 17:08 25.59734 47.20024 23489 ft 498 kts 26°
2026-04-27 17:09 25.62685 47.21971 23986 ft 504 kts 26°
2026-04-27 17:09 25.65723 47.23972 24449 ft 511 kts 26°
2026-04-27 17:09 25.68794 47.25995 24962 ft 515 kts 26°
2026-04-27 17:09 25.71883 47.28034 25531 ft 518 kts 26°
2026-04-27 17:10 25.74991 47.30089 26046 ft 522 kts 26°
2026-04-27 17:10 25.78126 47.32160 26577 ft 526 kts 26°
2026-04-27 17:10 25.81284 47.34246 26910 ft 530 kts 26°
2026-04-27 17:10 25.84451 47.36344 26857 ft 529 kts 26°
2026-04-27 17:11 25.87555 47.38402 26851 ft 525 kts 26°
2026-04-27 17:11 25.93823 47.42558 26864 ft 525 kts 26°
2026-04-27 17:11 25.96950 47.44663 26868 ft 527 kts 28°
2026-04-27 17:12 26.02973 47.49365 26864 ft 530 kts 31°
2026-04-27 17:12 26.05959 47.51780 26858 ft 531 kts 32°
2026-04-27 17:12 26.08949 47.54192 26850 ft 531 kts 31°
2026-04-27 17:13 26.11947 47.56597 26850 ft 531 kts 31°
2026-04-27 17:13 26.14965 47.59003 26870 ft 539 kts 31°
2026-04-27 17:13 26.18006 47.61421 26869 ft 549 kts 31°
2026-04-27 17:13 26.21145 47.63918 26840 ft 558 kts 31°
2026-04-27 17:14 26.24211 47.66592 26817 ft 567 kts 40°
2026-04-27 17:14 26.26803 47.69934 26822 ft 573 kts 53°
2026-04-27 17:14 26.28779 47.73796 26827 ft 575 kts 65°
2026-04-27 17:14 26.30045 47.78005 26818 ft 571 kts 78°
2026-04-27 17:15 26.30821 47.82346 26834 ft 571 kts 80°
2026-04-27 17:15 26.31588 47.86695 26829 ft 572 kts 79°
2026-04-27 17:15 26.32392 47.90987 26823 ft 574 kts 78°
2026-04-27 17:15 26.33257 47.95331 26822 ft 575 kts 78°
2026-04-27 17:16 26.34153 47.99682 26818 ft 576 kts 77°
2026-04-27 17:16 26.35046 48.04030 26817 ft 576 kts 78°
2026-04-27 17:16 26.35931 48.08387 26813 ft 576 kts 78°
2026-04-27 17:16 26.36814 48.12736 26814 ft 575 kts 78°
2026-04-27 17:17 26.37697 48.17086 26811 ft 575 kts 78°
2026-04-27 17:17 26.38577 48.21430 26812 ft 574 kts 78°
2026-04-27 17:17 26.39453 48.25765 26804 ft 573 kts 78°
2026-04-27 17:18 26.41190 48.34380 26802 ft 573 kts 78°
2026-04-27 17:18 26.42063 48.38713 26798 ft 573 kts 78°
2026-04-27 17:18 26.42934 48.43048 26799 ft 572 kts 78°
2026-04-27 17:18 26.43803 48.47379 26793 ft 572 kts 78°
2026-04-27 17:19 26.44670 48.51708 26795 ft 571 kts 78°
2026-04-27 17:19 26.45535 48.56034 26797 ft 572 kts 78°
2026-04-27 17:19 26.46399 48.60362 26802 ft 571 kts 78°
2026-04-27 17:19 26.47191 48.64641 26797 ft 570 kts 81°
2026-04-27 17:20 26.47714 48.69022 26790 ft 569 kts 86°
2026-04-27 17:20 26.47854 48.73427 26791 ft 567 kts 91°
2026-04-27 17:20 26.47881 48.77831 26797 ft 567 kts 91°
2026-04-27 17:20 26.47934 48.82230 26789 ft 567 kts 91°
2026-04-27 17:21 26.48012 48.86634 26784 ft 567 kts 90°
2026-04-27 17:21 26.48107 48.91035 26788 ft 567 kts 90°
2026-04-27 17:21 26.48209 48.95436 26790 ft 567 kts 90°
2026-04-27 17:21 26.48309 48.99775 26788 ft 566 kts 90°
2026-04-27 17:22 26.48409 49.04168 26787 ft 566 kts 90°
2026-04-27 17:22 26.48506 49.08555 26785 ft 566 kts 90°
2026-04-27 17:22 26.48600 49.12943 26780 ft 565 kts 90°
2026-04-27 17:22 26.48692 49.17330 26777 ft 565 kts 90°
2026-04-27 17:23 26.48780 49.21708 26774 ft 564 kts 90°
2026-04-27 17:23 26.48866 49.26081 26777 ft 563 kts 90°
2026-04-27 17:23 26.48952 49.30445 26779 ft 563 kts 90°
2026-04-27 17:23 26.49037 49.34809 26778 ft 562 kts 90°
2026-04-27 17:24 26.49119 49.39109 26778 ft 562 kts 90°
2026-04-27 17:24 26.49200 49.43463 26776 ft 561 kts 90°
2026-04-27 17:24 26.49280 49.47814 26777 ft 561 kts 90°
2026-04-27 17:24 26.49359 49.52165 26778 ft 560 kts 90°
2026-04-27 17:25 26.49436 49.56505 26777 ft 560 kts 90°
2026-04-27 17:25 26.49513 49.60817 26764 ft 547 kts 90°
2026-04-27 17:25 26.49585 49.65003 26663 ft 532 kts 90°
2026-04-27 17:25 26.49656 49.69075 26335 ft 520 kts 90°
2026-04-27 17:26 26.49723 49.73072 25840 ft 511 kts 90°
2026-04-27 17:26 26.49785 49.76969 25212 ft 507 kts 91°
2026-04-27 17:26 26.49699 49.80882 24546 ft 502 kts 95°
2026-04-27 17:26 26.49486 49.84752 23921 ft 493 kts 95°
2026-04-27 17:27 26.49262 49.88472 22879 ft 471 kts 96°
2026-04-27 17:27 26.49040 49.92081 21466 ft 462 kts 95°
2026-04-27 17:27 26.48826 49.95626 20049 ft 453 kts 95°
2026-04-27 17:27 26.48621 49.99098 18644 ft 443 kts 94°
2026-04-27 17:28 26.48422 50.02491 17226 ft 433 kts 94°
2026-04-27 17:28 26.48233 50.05759 15919 ft 422 kts 94°
2026-04-27 17:28 26.47875 50.12128 13259 ft 402 kts 94°
2026-04-27 17:29 26.47699 50.15201 11963 ft 392 kts 94°
2026-04-27 17:29 26.47525 50.18166 11184 ft 371 kts 94°
2026-04-27 17:29 26.47369 50.20923 10830 ft 341 kts 94°
2026-04-27 17:29 26.47221 50.23469 10492 ft 318 kts 94°
2026-04-27 17:30 26.47083 50.25808 10254 ft 294 kts 94°
2026-04-27 17:30 26.46830 50.30132 10041 ft 285 kts 94°
2026-04-27 17:30 26.46695 50.32398 9747 ft 297 kts 94°
2026-04-27 17:31 26.46559 50.34679 9422 ft 290 kts 94°
2026-04-27 17:31 26.46431 50.36866 9116 ft 275 kts 91°
2026-04-27 17:31 26.46691 50.38939 9048 ft 277 kts 67°
2026-04-27 17:31 26.47466 50.40976 9054 ft 292 kts 65°
2026-04-27 17:32 26.48260 50.43078 9027 ft 295 kts 66°
2026-04-27 17:32 26.49825 50.47302 9015 ft 293 kts 66°
2026-04-27 17:32 26.50589 50.49378 8987 ft 292 kts 66°
2026-04-27 17:33 26.51360 50.51468 8767 ft 291 kts 66°
2026-04-27 17:33 26.52124 50.53549 8441 ft 289 kts 66°
2026-04-27 17:33 26.52887 50.55628 8092 ft 289 kts 66°
2026-04-27 17:33 26.53647 50.57703 7753 ft 288 kts 66°
2026-04-27 17:34 26.54265 50.59804 7344 ft 285 kts 83°
2026-04-27 17:34 26.53976 50.61968 7042 ft 281 kts 115°
2026-04-27 17:34 26.52850 50.63714 6860 ft 277 kts 139°
2026-04-27 17:34 26.51254 50.64906 6692 ft 277 kts 159°
2026-04-27 17:35 26.49548 50.65887 6524 ft 281 kts 139°
2026-04-27 17:35 26.48384 50.67652 6366 ft 284 kts 119°
2026-04-27 17:35 26.47403 50.69589 6184 ft 287 kts 122°
2026-04-27 17:35 26.46397 50.71406 6076 ft 268 kts 123°
2026-04-27 17:36 26.45420 50.73056 6018 ft 244 kts 132°
2026-04-27 17:36 26.44055 50.74142 6056 ft 245 kts 165°
2026-04-27 17:36 26.42376 50.74325 6057 ft 243 kts 190°
2026-04-27 17:36 26.40773 50.73828 6042 ft 236 kts 202°
2026-04-27 17:37 26.39160 50.73597 6037 ft 238 kts 172°
2026-04-27 17:37 26.37649 50.74350 6046 ft 243 kts 140°
2026-04-27 17:37 26.36555 50.75799 6060 ft 246 kts 125°
2026-04-27 17:37 26.35607 50.77410 6051 ft 250 kts 123°
2026-04-27 17:38 26.34684 50.79034 6059 ft 253 kts 123°
2026-04-27 17:38 26.33744 50.80697 6052 ft 253 kts 122°
2026-04-27 17:38 26.33147 50.82494 6036 ft 247 kts 92°
2026-04-27 17:38 26.33435 50.84352 6050 ft 246 kts 61°
2026-04-27 17:39 26.34519 50.85784 6060 ft 243 kts 30°
2026-04-27 17:39 26.36088 50.86396 6050 ft 239 kts 359°
2026-04-27 17:39 26.37686 50.86026 6046 ft 235 kts 328°
2026-04-27 17:39 26.38889 50.84842 6053 ft 231 kts 307°
2026-04-27 17:40 26.39839 50.83391 6053 ft 232 kts 304°
2026-04-27 17:40 26.40747 50.81902 6047 ft 232 kts 303°
2026-04-27 17:40 26.41637 50.80428 6047 ft 233 kts 303°
2026-04-27 17:40 26.42530 50.78944 6034 ft 226 kts 303°
2026-04-27 17:41 26.43380 50.77533 6017 ft 213 kts 303°
2026-04-27 17:41 26.44182 50.76196 6034 ft 205 kts 303°
2026-04-27 17:41 26.44974 50.74878 6089 ft 205 kts 303°
2026-04-27 17:41 26.45791 50.73526 5815 ft 214 kts 303°
2026-04-27 17:42 26.46600 50.72182 5766 ft 203 kts 303°
2026-04-27 17:42 26.47373 50.70897 5740 ft 198 kts 303°
2026-04-27 17:42 26.47885 50.70051 5724 ft 199 kts 303°
2026-04-27 17:42 26.48667 50.68762 5514 ft 202 kts 303°
2026-04-27 17:43 26.49705 50.67043 5128 ft 201 kts 303°
2026-04-27 17:43 26.50474 50.65759 4656 ft 198 kts 303°
2026-04-27 17:43 26.51235 50.64481 4100 ft 196 kts 303°
2026-04-27 17:43 26.51989 50.63196 3473 ft 199 kts 303°
2026-04-27 17:44 26.52488 50.62335 3310 ft 204 kts 303°
2026-04-27 17:44 26.53532 50.60524 3100 ft 206 kts 303°
2026-04-27 17:44 26.54287 50.59219 3023 ft 193 kts 307°
2026-04-27 17:44 26.54908 50.58527 3013 ft 193 kts 328°
2026-04-27 17:45 26.56213 50.58188 3036 ft 200 kts
2026-04-27 17:45 26.57518 50.58770 3046 ft 206 kts 30°
2026-04-27 17:45 26.58712 50.59671 3031 ft 206 kts 37°
2026-04-27 17:45 26.59543 50.60961 3015 ft 209 kts 71°
2026-04-27 17:46 26.59553 50.62629 3049 ft 228 kts 105°
2026-04-27 17:46 26.58745 50.64174 3044 ft 234 kts 129°
2026-04-27 17:46 26.57657 50.65545 3051 ft 238 kts 132°
2026-04-27 17:46 26.56538 50.66902 3045 ft 237 kts 133°
2026-04-27 17:47 26.55435 50.68232 3038 ft 236 kts 133°
2026-04-27 17:47 26.54682 50.69140 3038 ft 236 kts 133°
2026-04-27 17:47 26.53207 50.70912 3044 ft 235 kts 133°
2026-04-27 17:47 26.52092 50.72250 3046 ft 235 kts 133°
2026-04-27 17:48 26.50972 50.73591 3046 ft 236 kts 133°
2026-04-27 17:48 26.49854 50.74932 3048 ft 236 kts 133°
2026-04-27 17:48 26.48716 50.76245 3038 ft 234 kts 141°
2026-04-27 17:48 26.47255 50.76965 3041 ft 231 kts 175°
2026-04-27 17:49 26.45702 50.76698 3050 ft 226 kts 205°
2026-04-27 17:49 26.44325 50.75891 3057 ft 228 kts 212°
2026-04-27 17:49 26.42944 50.74990 3057 ft 231 kts 212°
2026-04-27 17:49 26.41548 50.74075 3059 ft 234 kts 213°
2026-04-27 17:50 26.40163 50.73160 3040 ft 226 kts 213°
2026-04-27 17:50 26.37683 50.71353 3028 ft 205 kts 232°
2026-04-27 17:50 26.37158 50.69925 3042 ft 200 kts 269°
2026-04-27 17:51 26.37488 50.68451 3057 ft 198 kts 298°
2026-04-27 17:51 26.38193 50.67113 3061 ft 203 kts 302°
2026-04-27 17:51 26.38943 50.65773 3052 ft 202 kts 302°
2026-04-27 17:51 26.39672 50.64475 3044 ft 199 kts 303°
2026-04-27 17:52 26.40403 50.63178 3041 ft 198 kts 303°
2026-04-27 17:52 26.41139 50.61872 3046 ft 199 kts 303°
2026-04-27 17:52 26.41885 50.60554 3047 ft 202 kts 303°
2026-04-27 17:52 26.42639 50.59230 3045 ft 202 kts 303°
2026-04-27 17:53 26.43389 50.57909 3037 ft 201 kts 303°
2026-04-27 17:53 26.44138 50.56591 3034 ft 200 kts 301°
2026-04-27 17:53 26.44535 50.55140 3025 ft 199 kts 269°
2026-04-27 17:53 26.44060 50.53710 3039 ft 202 kts 232°
2026-04-27 17:54 26.42957 50.52726 3055 ft 205 kts 214°
2026-04-27 17:54 26.41749 50.51893 3025 ft 202 kts 213°
2026-04-27 17:54 26.40578 50.51099 3011 ft 195 kts 213°
2026-04-27 17:54 26.39440 50.50328 3015 ft 189 kts 213°
2026-04-27 17:55 26.38271 50.49728 2824 ft 184 kts 197°
2026-04-27 17:55 26.37057 50.49430 2579 ft 174 kts 193°
2026-04-27 17:55 26.35889 50.49378 2164 ft 166 kts 162°
2026-04-27 17:55 26.35053 50.50142 2066 ft 153 kts 130°
2026-04-27 17:56 26.34366 50.51078 2062 ft 165 kts 130°
2026-04-27 17:56 26.33642 50.52083 2054 ft 170 kts 129°
2026-04-27 17:56 26.32967 50.53157 1843 ft 164 kts 124°
2026-04-27 17:56 26.32382 50.54166 1634 ft 151 kts 122°
2026-04-27 17:57 26.31822 50.55140 1454 ft 149 kts 121°
2026-04-27 17:57 26.31262 50.56114 1268 ft 148 kts 121°
2026-04-27 17:57 26.30713 50.57067 1056 ft 145 kts 121°
2026-04-27 17:57 26.30169 50.58010 872 ft 144 kts 121°
2026-04-27 17:58 26.29626 50.58953 681 ft 145 kts 121°
2026-04-27 17:58 26.29083 50.59899 475 ft 145 kts 121°
2026-04-27 17:58 26.28542 50.60839 276 ft 144 kts 122°
2026-04-27 17:58 26.28006 50.61760 95 ft 143 kts 122°
2026-04-27 17:59 26.27478 50.62681 28 ft 134 kts 122°
2026-04-27 17:59 26.27050 50.63424 21 ft 89 kts 123°
2026-04-27 17:59 26.26820 50.63824 22 ft 34 kts 127°
2026-04-27 17:59 26.26688 50.63775 25 ft 25 kts 259°
2026-04-27 18:00 26.26743 50.63595 27 ft 25 kts 303°
2026-04-27 18:00 26.26805 50.63490 24 ft 13 kts 302°
2026-04-27 18:00 26.26840 50.63429 24 ft 9 kts 302°
2026-04-27 18:00 26.26853 50.63406 24 ft 11 kts 302°
2026-04-27 18:01 26.26897 50.63329 24 ft 12 kts 302°
2026-04-27 18:01 26.26944 50.63248 24 ft 13 kts 303°
2026-04-27 18:01 26.26992 50.63165 24 ft 13 kts 303°
2026-04-27 18:01 26.27041 50.63080 27 ft 13 kts 303°
2026-04-27 18:02 26.27090 50.62995 27 ft 10 kts 303°
2026-04-27 18:02 26.27098 50.62981 27 ft 1 kts 303°
2026-04-27 18:02 26.27102 50.62975 27 ft 1 kts 303°
2026-04-27 18:02 26.27109 50.62961 27 ft 3 kts 298°
2026-04-27 18:03 26.27108 50.62920 27 ft 6 kts 244°
2026-04-27 18:03 26.27075 50.62885 27 ft 7 kts 221°
2026-04-27 18:03 26.27070 50.62830 29 ft 8 kts 295°
2026-04-27 18:03 26.27091 50.62768 25 ft 9 kts 261°
2026-04-27 18:04 26.27048 50.62733 30 ft 8 kts 211°
2026-04-27 18:04 26.27032 50.62721 25 ft 1 kts 213°
2026-04-27 18:04 26.27023 50.62715 26 ft 0 kts 212°